Flag for Trinidad and Tobago Weather past 2 weeks in Port of Spain, Trinidad and Tobago

Now
77 °F

Passing clouds.


Feels Like: 78 °F
Forecast: 78 / 86 °F
Wind: 6 mph from East

Location: Piarco International Airport - Trinidad


UV Index: 10 (Very high)

Visibility: N/A


Pressure: 29.89 "Hg

Humidity: 89%

Dew point: 73 °F

Location of Port of SpainLocation

Historic Weather in Port of Spain

°F

Port of Spain temperature yesterday

Maximum temperature yesterday: 90 °F (at 1:00 PM)
Minimum temperature yesterday: 75 °F (at 4:00 AM)
Average temperature yesterday: 81 °F

Past Weeks' High & Low Weather Summary

 TemperatureHumidityPressure
High93 °F (Apr 13, 2:00 PM)100% (Apr 20, 10:00 PM)30.04 "Hg (Apr 20, 10:00 PM)
Low72 °F (Apr 13, 3:00 AM)38% (Apr 12, 3:00 PM)29.80 "Hg (Apr 15, 3:00 PM)
Average81 °F74%29.93 "Hg
* Reported Apr 8 3:00 AM — Apr 23 3:00 AM, Port of Spain, Weather by CustomWeather, © 2014

Note: Actual official high and low records may vary slightly from our data, if they occured in-between our weather recording intervals... More about our weather records

Advertising

Historic Weather Conditions — Data for Previous 24 hours

 ConditionsComfort  
Time TempWeatherWind HumidityBarometerVisibility
3:00 AM
Apr 23
77 °FLight rain. Passing clouds.5 mph89%29.89 "HgN/A
2:00 AM77 °FPassing clouds.7 mph89%29.89 "HgN/A
1:00 AM77 °FPassing clouds.6 mph94%29.92 "HgN/A
12:00 AM79 °FSprinkles. Passing clouds.6 mph89%29.92 "HgN/A
11:00 PM
Apr 22
79 °FPassing clouds.7 mph89%29.92 "HgN/A
10:00 PM79 °FScattered showers. Passing clouds.6 mph89%29.92 "HgN/A
9:00 PM77 °FPassing clouds.7 mph89%29.89 "HgN/A
8:00 PM79 °FPassing clouds.6 mph84%29.89 "HgN/A
7:00 PM79 °FScattered showers. Passing clouds.9 mph84%29.86 "Hg5 mi
6:00 PM81 °FScattered showers. Broken clouds.9 mph79%29.83 "Hg5 mi
5:00 PM81 °FSprinkles. Partly sunny.12 mph79%29.83 "HgN/A
4:00 PM84 °FScattered showers. Broken clouds.9 mph70%29.83 "Hg4 mi
3:00 PM88 °FBroken clouds.18 mph62%29.86 "HgN/A
2:00 PM86 °FScattered showers. Broken clouds.14 mph66%29.86 "Hg3 mi
1:00 PM90 °FPartly sunny.16 mph55%29.89 "HgN/A
12:00 PM88 °FPartly sunny.12 mph62%29.92 "HgN/A
11:00 AM86 °FBroken clouds.18 mph66%29.95 "HgN/A
10:00 AM86 °FPartly sunny.16 mph62%29.95 "HgN/A
9:00 AM84 °FPartly sunny.12 mph70%29.95 "HgN/A
8:00 AM82 °FBroken clouds.12 mph74%29.95 "HgN/A
7:00 AM79 °FPartly sunny.6 mph84%29.92 "Hg6 mi
6:00 AM75 °FPartly sunny.No wind94%29.92 "Hg6 mi
5:00 AM75 °FPassing clouds.No wind94%29.89 "HgN/A
4:00 AM75 °FPassing clouds.No wind94%29.89 "HgN/A
Weather by CustomWeather, © 2014

See weather overview